GEOSCAN 1 (RS92S1)

Last updated on Sun Aug 09 2026 00:03:16 GMT+0000 (Coordinated Universal Time)

1 64880U 25155E 26220.59266997 .00006276 00000+0 20699-3 0 9998 2 64880 97.4590 189.5927 0007418 10.0880 350.0508 15.31777398 88794
UTC large
Height (km)
Speed (km/s)
/
Latitude / Longitude
Inclination (degrees)
Orbital Period (minutes)
Azimuth
Elevation
Range (km)
Doppler Factor

Next 0 passes for location: London (51.5072 / 0.1276)

No passes found over London.
GEOSCAN 1 (RS92S1)